Epoch = 2004 Nov. 11.0 TT
T = 2004 Nov. 11.36102 TT Peri. = 322.36823
e = 0.4460995 Node = 356.09291 2000.0
q = 3.9382105 AU Incl. = 50.45313
a = 7.1099597 AU n = 0.05198803 P = 18.96 years
星図
光度変化
m1 = 9.7 + 5 logΔ + 10.0 log r
軌道要素は、CBET 5282に掲載されたものです。
星図は StellaNavigator Ver.2.0 for Windows
(アストロアーツ
編著 / アスキー出版局刊) で作成したものです。
光度グラフはComet for
Windowsで作成したものです。
Copyright(C) Seiichi Yoshida (comet@aerith.net). All rights reserved.